Location: Unspecified
(0.0000°N, 0.0000°E)
Time: 22:27:49
(UTC+02:00)

Palapa 6 Rocket - Visible Passes

Search period start: 27 August 2016 00:00
Search period end: 06 September 2016 00:00
Orbit: 485 x 1222 km, 22.7° (Epoch: 26 August)

Date Brightness Start Highest point End Pass type
(mag) Time Alt. Az. Time Alt. Az. Time Alt. Az.
27 Aug 5.6 22:07:29 10° NNW 22:09:20 15° N 22:09:20 15° N visible
28 Aug 5.2 21:52:56 10° NNW 21:56:21 21° N 21:56:21 21° N visible
29 Aug 4.8 21:38:27 10° NW 21:43:20 27° NNE 21:43:23 27° NNE visible
30 Aug 4.5 21:23:58 10° NW 21:29:26 32° NNE 21:30:28 30° NE visible
31 Aug 4.5 21:09:30 10° NW 21:15:30 38° NNE 21:17:34 28° ENE visible
31 Aug 6.4 22:58:53 10° WNW 22:59:30 13° WNW 22:59:30 13° WNW visible
01 Sep 4.3 20:55:04 10° NW 21:01:32 45° NNE 21:04:42 24° E visible
01 Sep 5.9 22:44:44 10° WNW 22:46:38 20° W 22:46:38 20° W visible
02 Sep 4.3 20:40:38 10° NW 20:47:32 53° NNE 20:51:51 18° E visible
02 Sep 5.4 22:30:35 10° W 22:33:48 28° W 22:33:48 28° W visible
03 Sep 4.2 20:26:14 10° WNW 20:33:28 62° NNE 20:39:02 12° ESE visible
03 Sep 4.9 22:16:25 10° W 22:20:58 36° WSW 22:20:58 36° WSW visible
04 Sep 4.8 07:25:36 10° SSW 07:29:09 26° SSE 07:33:15 10° E visible
04 Sep 4.2 20:11:51 10° WNW 20:19:23 71° NNE 20:25:40 10° ESE visible
04 Sep 4.7 22:02:16 10° W 22:08:10 39° SSW 22:08:10 39° SSW visible
05 Sep 4.5 07:11:42 10° SW 07:15:16 29° SSE 07:19:21 10° E visible
05 Sep 4.8 21:48:08 10° W 21:54:25 36° SSW 21:55:22 34° S visible
